Regional Weather Roundup
Issued by NWS

Home | Current Version | Previous Version | Graphics & Text | Print | Product List | Glossary On
Versions: 1 2 3 4 5 6 7 8 9 10 11 12 13 14 15 16 17 18 19 20 21 22 23 24 25 26 27 28 29 30 31 32 33 34 35 36 37 38 39 40 41 42 43 44 45 46 47 48 49 50
000
ASUS43 KLSX 202357
RWRMO

WEATHER SUMMARY FOR MISSOURI
NATIONAL WEATHER SERVICE SPRINGFIELD MO
600 PM CST FRI JAN 20 2017

NOTE: "FAIR" INDICATES FEW OR NO CLOUDS BELOW 12,000 FEET WITH NO
       SIGNIFICANT WEATHER AND/OR OBSTRUCTIONS TO VISIBILITY.
       CURRENT SKY AND/OR WEATHER CONDITIONS ARE NOT AVAILABLE FOR
       CHILLICOTHE AND FARMINGTON.

MOZ001>031-035>038-043-044-053-054-210100-
...NORTHERN AND WESTERN MISSOURI...

CITY           SKY/WX    TMP DP  RH WIND       PRES   REMARKS
KANSAS CTY INT CLOUDY    49  46  90 SE6       29.46R FOG
6HR MIN TEMP:  48; 6HR MAX TEMP:  50; 6HR PCP: TRACE;

LEE`S SUMMIT   CLOUDY    52  47  83 S3        29.47R
6HR MIN TEMP:  48; 6HR MAX TEMP:  53;

ST JOSEPH      LGT RAIN  47  47 100 E3        29.46R FOG
6HR MIN TEMP:  46; 6HR MAX TEMP:  49; 6HR PCP:  0.02;

CHILLICOTHE      N/A     48  47  96 VRB3      29.49S
6HR MIN TEMP:  45; 6HR MAX TEMP:  48;

KIRKSVILLE     CLOUDY    46  46 100 E7        29.52S FOG

$$
MOZ066>068-077>081-088>096-101>105-210100-
...SOUTHWEST MISSOURI...

CITY           SKY/WX    TMP DP  RH WIND       PRES   REMARKS
SPRINGFIELD    CLEAR     59  40  49 S14       29.49R
6HR MIN TEMP:  57; 6HR MAX TEMP:  66;

JOPLIN         CLEAR     59  39  47 S12       29.48R
6HR MIN TEMP:  59; 6HR MAX TEMP:  66;

BRANSON        PTCLDY    63  39  42 SW10      29.55R

$$
MOZ032>034-039>042-045>050-055>058-069>072-210100-
...CENTRAL MISSOURI...

CITY           SKY/WX    TMP DP  RH WIND       PRES   REMARKS
COLUMBIA       NOT AVBL
JEFFERSON CITY PTCLDY    51  46  83 SE7       29.49S
6HR MIN TEMP:  50; 6HR MAX TEMP:  56;

ROLLA          CLEAR     53  48  83 SE9       29.50S
6HR MIN TEMP:  50; 6HR MAX TEMP:  57;

SEDALIA        CLEAR     52  46  80 SE6       29.48R
6HR MIN TEMP:  51; 6HR MAX TEMP:  58;

WARRENSBURG    CLEAR     52  45  76 E3        29.45R

$$
MOZ051-052-059>065-210100-
...EAST CENTRAL MISSOURI...

CITY           SKY/WX    TMP DP  RH WIND       PRES   REMARKS
ST LOUIS INTL  MOCLDY    52  48  86 SE7       29.58R
6HR MIN TEMP:  51; 6HR MAX TEMP:  55;


$$
MOZ072>076-082>087-097>100-106>115-210100-
...SOUTH CENTRAL AND SOUTHEAST MISSOURI...

CITY           SKY/WX    TMP DP  RH WIND       PRES   REMARKS
CAPE GIRARDEAU CLEAR     57  51  80 S8        29.63R
6HR MIN TEMP:  56; 6HR MAX TEMP:  60;

POPLAR BLUFF   CLEAR     58  53  84 S8        29.62R
6HR MIN TEMP:  56; 6HR MAX TEMP:  62;

WEST PLAINS    CLEAR     58  48  69 S10       29.57R
6HR MIN TEMP:  53; 6HR MAX TEMP:  63;


$$



USA.gov is the U.S. government's official web portal to all federal, state and local government web resources and services.